Location: Berg
(47.2344°N, 9.5296°E)
Time: 22:36:03
(UTC+00:00)

Cosmos 1428 Rocket - Pass Details

Date: 24 January 2021
Orbit: 947 x 989 km, 82.9° (Epoch: 04 March)

Event Time Altitude Azimuth Distance (km) Brightness Sun altitude
Rises 18:14:19 0° 187° (S) 3,674 7.7 -20.6°
Reaches altitude 10° 18:16:49 10° 187° (S) 2,734 7.0 -21.0°
Maximum altitude 18:23:07 88° 276° (W) 996 4.5 -22.1°
Drops below altitude 10° 18:29:29 10° 9° (N) 2,760 6.7 -23.1°
Sets 18:32:01 0° 9° (N) 3,712 7.4 -23.6°
